Wind_Speed
18 17 16 13 10 9 7 6 5 5 5 5 5 4 1 2 4 8 12 9 6 3 1 3 6 8 6 4 8 5 3 3 4 6 6 13 6 6 8 16 5 5 16 22 26
18 16 15 14 10 8 6 5 6 6 6 6 5 3 0 3 7 10 10 11 4 3 5 5 6 4 2 2 4 4 1 5 5 5 7 14 13 12 7 10 9 21 24 27 28
16 16 14 13 10 7 5 5 5 5 5 5 5 4 0 4 4 6 12 8 1 5 8 5 5 3 5 9 3 2 5 4 14 13 22 16 14 4 18 4 14 32 24 23 30
16 15 14 12 8 6 4 4 4 4 5 5 5 3 2 6 4 1 12 10 2 7 7 4 8 9 3 2 8 2 8 6 17 20 16 6 9 8 2 7 20 30 27 27 31
16 14 13 11 7 5 3 2 3 4 4 4 5 3 1 3 4 7 5 9 8 6 4 6 21 15 7 5 11 6 5 4 9 9 17 20 12 11 17 25 28 24 24 25 24
16 14 13 11 7 5 3 3 2 3 4 4 4 2 2 2 5 6 7 9 5 2 3 7 8 13 11 5 6 10 8 9 9 12 13 17 14 7 10 28 26 22 20 20 21
15 14 13 10 7 4 3 3 3 3 4 4 4 2 5 7 3 7 9 6 4 4 6 4 18 12 14 7 9 7 5 3 2 2 5 21 1 5 30 29 25 21 17 16 18
15 14 12 10 7 5 4 4 4 5 5 4 4 2 6 4 6 6 7 8 7 6 10 7 13 10 4 19 6 4 6 3 7 6 8 9 4 16 27 26 24 20 18 18 18
15 13 12 9 7 5 5 5 6 6 5 2 2 3 6 4 11 2 7 6 4 7 7 10 10 4 8 5 4 6 4 5 8 5 6 3 5 18 25 22 25 23 22 19 15
15 13 12 9 6 5 6 6 6 7 5 2 4 1 14 14 12 11 9 10 11 10 11 7 5 3 2 4 3 5 4 3 6 5 10 6 3 17 19 17 23 21 20 20 15
15 13 11 8 5 5 7 5 6 4 10 9 6 10 3 21 7 10 13 15 16 12 3 8 1 7 13 11 7 7 5 7 6 8 2 7 9 14 27 22 16 20 23 24 16
14 12 11 8 6 5 7 7 8 1 8 18 21 19 17 19 13 16 13 13 6 5 3 6 7 11 10 12 6 8 3 6 9 3 5 8 9 3 13 9 10 16 25 26 21
14 12 10 7 6 6 8 12 5 18 5 12 13 23 21 17 19 21 18 16 8 7 6 5 11 15 8 10 9 3 6 4 8 9 10 14 6 2 2 8 11 13 25 25 25
14 12 8 6 4 6 6 12 11 12 4 5 3 8 15 16 8 23 22 17 3 10 8 7 8 6 7 5 4 3 3 2 6 4 4 9 4 2 3 5 9 12 19 23 17
14 11 7 6 4 6 8 9 1 4 3 6 8 14 10 18 22 16 29 23 11 13 5 12 5 5 4 6 5 7 6 2 3 3 3 3 5 3 3 6 7 5 5 13 8
14 10 8 9 13 5 13 6 2 6 4 5 7 6 5 6 9 26 10 26 26 4 3 8 10 6 8 5 2 5 1 7 6 4 3 4 5 4 5 6 4 8 14 15 9
13 10 8 12 6 3 14 2 5 4 5 6 5 6 9 5 4 6 5 5 9 4 4 6 5 5 3 2 7 8 6 4 5 5 5 3 3 4 6 8 7 12 16 12 13
13 9 10 15 11 7 11 5 2 2 0 4 4 10 3 6 5 3 4 3 5 3 2 4 6 4 2 5 6 2 6 5 4 3 3 4 2 4 5 16 14 12 18 21 15
11 9 9 12 10 2 4 4 5 3 4 4 5 8 7 12 7 2 4 2 4 7 3 4 4 4 4 3 5 4 2 5 4 0 2 3 1 3 4 7 4 19 18 12 7
10 8 8 8 11 7 5 4 3 4 3 5 4 3 2 6 8 4 4 1 1 6 5 6 7 5 5 3 3 4 2 2 3 2 4 2 2 4 7 9 9 13 13 10 8
10 6 8 14 12 3 3 6 4 8 2 2 3 3 3 2 3 3 2 4 5 2 4 4 3 7 4 3 3 4 2 5 4 4 3 1 4 5 9 7 11 15 13 8 10
6 3 9 21 6 3 4 5 4 2 3 3 5 2 5 8 4 4 8 7 3 4 4 3 3 3 3 5 2 2 3 4 4 5 1 4 5 5 8 15 17 12 9 4 4
5 5 5 21 2 3 5 4 8 8 7 3 6 6 2 1 1 5 6 6 3 4 4 3 3 3 8 6 6 2 1 3 4 3 2 4 4 2 10 12 14 11 7 7 5
3 3 3 17 7 6 3 7 2 10 8 10 4 4 4 5 7 2 1 5 5 5 3 3 2 5 5 7 3 5 4 3 4 4 2 4 5 7 9 10 16 16 10 8 7
2 2 3 3 7 9 4 6 3 5 6 15 3 3 9 5 3 2 2 3 5 5 3 4 2 2 6 6 5 5 2 2 3 6 6 6 10 13 10 9 15 13 13 11 9
4 4 4 8 17 15 10 5 4 1 5 3 4 14 18 4 3 7 5 1 3 0 2 1 3 2 5 6 8 1 7 3 6 11 8 6 1 5 9 14 16 15 14 12 13
7 4 2 15 6 5 5 3 8 7 7 9 4 11 20 3 6 5 8 7 5 8 6 3 2 1 4 5 7 4 7 7 4 8 4 5 7 8 5 11 13 12 12 16 12
Wind_Direction
351 349 348 348 346 345 352 1 5 1 2 2 1 333 341 176 170 176 197 169 191 346 86 171 172 197 229 228 221 90 118 273 229 192 157 144 108 84 109 127 117 220 171 163 150
350 348 345 345 343 341 348 3 4 5 4 5 357 348 349 172 187 200 175 183 217 260 279 206 153 176 235 61 82 88 140 233 209 215 154 164 134 138 117 97 81 108 133 147 159
349 346 344 341 337 337 343 357 0 1 9 2 6 6 202 154 176 199 181 184 119 278 246 221 176 274 193 133 27 237 204 72 303 172 155 161 133 111 121 69 154 141 144 163 176
347 344 342 339 333 328 328 346 350 3 13 4 11 25 161 148 162 78 223 231 236 235 226 227 98 109 62 149 121 113 284 275 306 141 133 97 108 80 53 160 150 151 155 153 165
344 343 341 337 328 317 303 315 337 10 8 3 12 29 164 225 236 333 191 178 204 227 243 264 124 143 160 190 160 167 313 20 285 80 109 114 85 107 109 137 147 156 163 170 178
342 340 338 332 322 306 285 296 326 0 355 352 1 31 207 259 306 321 193 170 178 201 302 295 170 195 175 137 142 163 161 256 43 65 144 120 138 102 155 148 152 164 172 186 197
340 338 336 328 315 293 270 279 301 334 336 333 332 314 244 218 7 6 191 143 148 338 325 83 161 167 149 138 131 119 172 250 63 167 131 124 84 139 154 160 163 177 183 200 214
337 336 333 324 308 289 261 271 291 309 311 311 307 299 253 233 298 269 233 183 206 262 287 205 155 119 130 124 68 100 62 350 263 137 159 170 206 161 163 162 167 181 197 207 215
334 334 331 319 305 282 247 255 277 297 306 304 241 217 258 280 257 250 252 223 279 297 291 250 250 107 126 99 50 5 183 223 309 144 134 151 107 181 171 168 176 187 204 209 216
332 333 327 317 300 272 242 251 281 292 287 227 209 262 244 226 234 263 231 262 283 296 295 288 254 72 57 99 208 179 240 238 217 238 162 123 180 161 169 190 189 198 209 220 206
331 332 325 315 295 256 246 275 280 270 241 221 232 223 19 230 235 230 209 239 252 275 283 308 128 236 234 201 168 171 201 200 248 232 84 180 135 173 185 192 202 206 216 230 233
331 329 325 312 288 253 253 244 225 108 298 285 244 249 246 259 280 263 209 221 242 262 297 7 261 256 253 254 186 181 173 252 311 228 86 128 139 128 195 205 191 207 221 233 242
332 327 324 308 281 266 266 241 292 287 279 287 234 230 234 230 242 267 209 220 229 264 275 192 263 296 318 82 267 65 194 242 242 94 98 126 161 193 236 258 249 238 241 236 240
332 324 321 305 292 249 255 350 281 305 38 282 190 253 238 239 260 232 229 214 219 233 242 243 273 309 264 117 229 146 236 65 354 44 229 194 201 217 275 299 271 233 227 238 238
331 318 309 264 231 257 347 340 79 152 9 268 239 218 223 201 232 249 227 215 225 244 107 260 273 327 124 176 187 206 211 134 239 335 90 69 89 250 160 245 250 144 142 153 146
326 311 293 266 251 301 350 337 157 52 264 299 334 189 209 223 218 232 218 221 231 240 263 240 272 171 193 217 189 147 8 26 17 71 18 239 130 233 191 198 159 109 122 133 142
321 301 272 250 225 301 358 71 50 136 335 355 5 15 336 246 244 214 230 170 211 198 266 312 297 317 165 315 341 68 46 346 353 1 244 136 38 245 196 165 168 152 153 148 153
318 298 261 237 242 289 353 55 100 301 41 296 345 347 321 270 235 235 231 355 12 289 203 200 329 12 9 183 213 283 140 156 229 236 280 18 197 274 181 191 169 173 158 147 146
323 301 262 217 224 236 13 73 208 213 259 281 35 48 344 339 324 146 57 87 54 27 35 36 293 310 268 197 120 297 285 183 146 329 93 174 12 356 231 240 180 159 162 149 159
338 316 270 181 192 196 77 229 237 228 291 58 81 357 351 328 355 42 10 78 340 65 51 23 338 320 327 22 312 180 187 358 13 273 270 207 212 230 195 221 158 160 158 147 143
352 341 123 160 161 154 153 229 240 247 240 64 121 16 341 327 291 335 229 278 217 140 91 102 124 286 1 354 235 348 24 59 116 129 162 226 253 231 185 168 154 152 155 155 149
3 14 159 165 141 178 184 205 251 224 151 192 131 93 206 170 265 265 211 228 43 89 101 105 164 294 285 300 242 216 153 115 119 286 208 155 258 348 133 146 154 161 168 185 197
359 312 165 186 153 278 295 255 249 205 145 269 204 159 225 210 234 201 249 297 302 46 85 29 11 333 340 349 347 29 221 137 125 86 243 139 255 195 146 154 169 161 190 182 185
14 11 326 213 244 155 217 273 246 166 102 203 236 114 111 263 221 345 340 357 70 80 72 74 140 178 213 239 226 293 323 151 116 107 218 195 168 207 203 195 193 183 177 188 180
54 280 331 305 311 243 133 351 25 10 39 35 68 328 184 211 106 255 324 9 0 50 42 123 223 241 258 257 291 258 328 147 152 196 160 202 177 204 210 207 211 190 194 162 142
54 1 346 24 23 68 16 346 341 67 7 68 13 354 327 110 144 203 175 211 194 345 263 181 256 354 304 310 338 180 21 4 51 13 35 79 267 187 201 161 158 182 172 148 123
359 349 327 10 17 71 343 4 359 331 74 97 73 2 298 33 35 103 154 133 170 159 202 150 160 51 281 324 325 22 357 57 53 30 98 209 224 161 137 152 174 182 146 130 115
Height
1539 1536 1534 1532 1531 1531 1530 1530 1529 1529 1529 1529 1528 1528 1528 1528 1529 1531 1532 1535 1536 1537 1538 1540 1542 1544 1546 1548 1549 1549 1561 1563 1555 1550 1547 1548 1548 1552 1554 1555 1558 1559 1558 1561 1566
1538 1535 1533 1532 1531 1530 1529 1529 1529 1529 1529 1528 1528 1528 1527 1528 1529 1529 1532 1533 1535 1535 1536 1539 1542 1543 1545 1545 1547 1549 1560 1555 1545 1543 1544 1547 1546 1550 1554 1556 1560 1559 1562 1565 1569
1538 1535 1533 1531 1530 1529 1529 1529 1529 1529 1529 1529 1528 1527 1527 1528 1529 1529 1530 1532 1532 1534 1534 1537 1542 1544 1546 1546 1548 1548 1550 1546 1541 1541 1543 1546 1549 1550 1552 1559 1560 1559 1563 1567 1569
1537 1534 1532 1530 1529 1529 1528 1528 1529 1529 1529 1529 1528 1527 1527 1528 1532 1528 1529 1530 1531 1532 1533 1535 1543 1544 1545 1546 1547 1547 1544 1552 1547 1541 1545 1546 1548 1553 1553 1553 1558 1560 1563 1567 1570
1536 1533 1531 1529 1529 1528 1528 1528 1528 1529 1529 1529 1528 1527 1528 1529 1527 1526 1527 1529 1529 1531 1532 1533 1540 1536 1539 1537 1543 1548 1549 1550 1549 1544 1546 1548 1551 1552 1556 1556 1559 1562 1565 1567 1570
1535 1532 1530 1528 1527 1527 1527 1528 1528 1528 1528 1528 1528 1527 1528 1529 1526 1525 1527 1528 1529 1530 1532 1532 1533 1530 1530 1536 1539 1544 1550 1551 1543 1546 1547 1546 1552 1552 1562 1558 1560 1562 1564 1566 1568
1533 1531 1529 1527 1526 1526 1526 1527 1527 1527 1528 1527 1527 1527 1527 1526 1526 1525 1527 1528 1529 1529 1530 1531 1529 1528 1529 1533 1537 1542 1545 1541 1537 1538 1542 1545 1553 1554 1554 1558 1560 1563 1565 1566 1568
1532 1530 1527 1525 1524 1525 1525 1526 1526 1526 1527 1527 1526 1526 1525 1525 1525 1526 1527 1527 1528 1528 1527 1531 1529 1527 1529 1534 1539 1544 1549 1555 1532 1536 1543 1545 1558 1557 1557 1559 1562 1564 1566 1566 1566
1531 1528 1526 1524 1523 1524 1524 1525 1525 1525 1525 1526 1526 1526 1524 1524 1523 1525 1526 1525 1527 1526 1526 1528 1529 1528 1533 1539 1551 1549 1559 1555 1542 1531 1537 1544 1556 1554 1558 1560 1560 1560 1561 1560 1562
1529 1527 1525 1523 1522 1523 1523 1524 1524 1524 1524 1525 1526 1528 1522 1521 1521 1523 1524 1524 1524 1525 1526 1527 1526 1528 1532 1541 1559 1554 1557 1545 1544 1525 1529 1541 1548 1553 1559 1564 1559 1560 1561 1561 1556
1528 1526 1524 1522 1521 1522 1523 1524 1526 1526 1522 1520 1519 1518 1517 1519 1521 1521 1523 1524 1525 1525 1528 1525 1531 1538 1527 1526 1527 1531 1539 1539 1530 1525 1529 1537 1547 1552 1550 1554 1559 1560 1560 1561 1558
1526 1524 1522 1521 1520 1521 1522 1522 1521 1523 1520 1516 1514 1515 1517 1520 1522 1519 1522 1524 1523 1526 1524 1531 1536 1522 1517 1515 1526 1528 1536 1538 1528 1518 1534 1540 1548 1554 1552 1551 1554 1558 1559 1558 1558
1525 1523 1521 1519 1519 1520 1520 1520 1521 1520 1520 1509 1507 1510 1513 1518 1517 1517 1519 1520 1520 1523 1523 1533 1523 1515 1511 1516 1525 1531 1535 1529 1529 1526 1532 1543 1554 1554 1551 1550 1550 1549 1551 1555 1554
1523 1521 1520 1519 1521 1519 1519 1521 1520 1520 1530 1513 1508 1508 1511 1514 1515 1514 1515 1517 1517 1521 1519 1522 1512 1514 1513 1518 1519 1527 1517 1516 1517 1525 1544 1531 1563 1556 1553 1551 1549 1543 1544 1549 1551
1521 1520 1518 1518 1518 1519 1521 1519 1518 1519 1558 1508 1503 1504 1504 1511 1510 1509 1510 1513 1516 1514 1517 1520 1513 1513 1520 1516 1510 1517 1512 1511 1511 1520 1529 1539 1558 1554 1552 1553 1547 1542 1544 1547 1550
1519 1518 1516 1516 1517 1520 1518 1517 1518 1536 1554 1512 1502 1500 1503 1504 1504 1504 1507 1509 1508 1511 1510 1511 1505 1506 1507 1505 1505 1504 1512 1513 1518 1529 1550 1539 1548 1558 1554 1545 1544 1543 1543 1545 1548
1517 1516 1515 1514 1517 1518 1517 1517 1536 1550 1516 1519 1514 1507 1510 1504 1502 1503 1504 1509 1516 1527 1526 1512 1508 1501 1502 1508 1502 1508 1529 1553 1550 1558 1557 1539 1548 1548 1542 1540 1542 1542 1544 1545 1546
1514 1513 1513 1513 1516 1518 1517 1520 1542 1524 1521 1511 1509 1508 1515 1504 1501 1500 1504 1514 1510 1513 1523 1528 1533 1506 1503 1506 1512 1512 1525 1552 1559 1564 1550 1541 1557 1550 1539 1540 1541 1542 1543 1543 1545
1512 1510 1510 1513 1515 1518 1519 1539 1536 1525 1515 1513 1506 1522 1524 1511 1509 1502 1512 1517 1517 1515 1525 1528 1524 1503 1501 1499 1503 1513 1523 1515 1534 1537 1553 1557 1550 1543 1541 1539 1539 1540 1543 1543 1544
1509 1508 1507 1511 1514 1518 1523 1534 1522 1515 1513 1514 1526 1528 1534 1527 1523 1515 1520 1513 1514 1510 1511 1516 1533 1509 1502 1500 1501 1506 1506 1527 1540 1550 1551 1556 1554 1553 1542 1538 1540 1543 1542 1543 1543
1508 1506 1506 1509 1514 1519 1532 1528 1518 1514 1516 1521 1531 1530 1528 1531 1526 1526 1520 1513 1507 1508 1507 1514 1529 1525 1510 1513 1514 1514 1519 1523 1531 1543 1554 1561 1557 1532 1532 1533 1538 1539 1541 1542 1541
1508 1509 1508 1509 1515 1516 1523 1517 1514 1514 1517 1521 1518 1519 1523 1526 1530 1526 1519 1510 1504 1502 1513 1514 1527 1537 1521 1508 1504 1505 1514 1523 1545 1541 1543 1550 1554 1530 1530 1533 1536 1537 1538 1538 1538
1510 1509 1509 1511 1520 1520 1514 1511 1511 1510 1516 1521 1513 1509 1514 1520 1534 1522 1520 1507 1507 1510 1513 1514 1529 1544 1533 1522 1509 1510 1509 1514 1523 1533 1539 1551 1554 1532 1532 1533 1533 1533 1535 1536 1536
1512 1515 1511 1511 1508 1510 1513 1511 1509 1507 1511 1519 1514 1514 1521 1525 1526 1518 1513 1509 1507 1510 1513 1516 1527 1534 1547 1532 1521 1518 1511 1512 1522 1542 1537 1536 1539 1535 1532 1530 1529 1530 1531 1533 1534
1514 1515 1514 1517 1511 1507 1510 1513 1510 1515 1510 1511 1511 1517 1517 1518 1520 1519 1513 1512 1511 1512 1515 1518 1531 1525 1522 1517 1513 1511 1510 1512 1516 1518 1528 1525 1529 1527 1527 1524 1524 1528 1530 1532 1533
1516 1517 1517 1518 1510 1509 1516 1519 1517 1513 1512 1516 1523 1514 1520 1508 1510 1519 1516 1518 1518 1515 1520 1520 1530 1523 1525 1513 1510 1509 1513 1507 1514 1516 1522 1524 1526 1520 1522 1522 1524 1528 1529 1530 1530
1517 1516 1516 1521 1521 1521 1529 1524 1521 1518 1517 1513 1522 1522 1526 1506 1506 1507 1508 1510 1511 1516 1520 1523 1527 1530 1534 1519 1517 1527 1526 1517 1520 1519 1525 1531 1525 1521 1524 1524 1525 1527 1528 1529 1529